This is the latest recevied weather packets stored in our database for station/object SP1BMW-13. If no packets are shown the sender has not sent any weather packets the latest 10 day(s).
| Time | Temp. | Humidity | Pressure | Rain* | Wind** | Luminosity | Snow |
|---|---|---|---|---|---|---|---|
| 1787875577 | 17.78° C | 60% | 1014.9 hPa | 0 mm | 0.45 m/s, 53° | 0 W/m² | - |
| 1787875517 | 17.78° C | 59% | 1015 hPa | 0 mm | 0.89 m/s, 109° | 0 W/m² | - |
| 1787875457 | 17.78° C | 59% | 1015 hPa | 0 mm | 0.45 m/s, 5° | 0 W/m² | - |
| 1787875337 | 18.33° C | 59% | 1015 hPa | 0 mm | 0.89 m/s, 124° | 0 W/m² | - |
| 1787875277 | 18.33° C | 59% | 1015.1 hPa | 0 mm | 0.89 m/s, 261° | 0 W/m² | - |
| 1787875217 | 18.33° C | 59% | 1015 hPa | 0 mm | 0.89 m/s, 35° | 0 W/m² | - |
| 1787875157 | 18.33° C | 59% | 1015 hPa | 0 mm | 0 m/s | 0 W/m² | - |
| 1787875097 | 18.33° C | 59% | 1015.2 hPa | 0 mm | 0 m/s | 0 W/m² | - |
| 1787875037 | 18.33° C | 59% | 1015.1 hPa | 0 mm | 1.34 m/s, 88° | 0 W/m² | - |
| 1787874977 | 18.33° C | 59% | 1015.2 hPa | 0 mm | 0.89 m/s, 31° | 0 W/m² | - |
| 1787874917 | 18.33° C | 59% | 1015.1 hPa | 0 mm | 0.89 m/s, 66° | 0 W/m² | - |
| 1787874857 | 18.33° C | 59% | 1015.2 hPa | 0 mm | 0.45 m/s, 107° | 0 W/m² | - |
| 1787874797 | 18.33° C | 59% | 1015.3 hPa | 0 mm | 0.89 m/s, 34° | 0 W/m² | - |
| 1787874737 | 18.33° C | 59% | 1015.3 hPa | 0 mm | 0.45 m/s, 35° | 0 W/m² | - |
| 1787874677 | 18.33° C | 58% | 1015.1 hPa | 0 mm | 1.34 m/s, 60° | 0 W/m² | - |
| 1787874617 | 18.33° C | 58% | 1015.3 hPa | 0 mm | 0.89 m/s, 27° | 0 W/m² | - |
| 1787874557 | 18.33° C | 58% | 1015.3 hPa | 0 mm | 1.79 m/s, 115° | 0 W/m² | - |
| 1787874497 | 18.33° C | 58% | 1015.4 hPa | 0 mm | 0.45 m/s, 239° | 0 W/m² | - |
| 1787874437 | 18.33° C | 58% | 1015.4 hPa | 0 mm | 0.89 m/s, 142° | 0 W/m² | - |
| 1787874377 | 18.33° C | 58% | 1015.5 hPa | 0 mm | 1.34 m/s, 176° | 0 W/m² | - |
| 1787874317 | 18.33° C | 58% | 1015.4 hPa | 0 mm | 0.89 m/s, 78° | 0 W/m² | - |
| 1787874257 | 18.33° C | 59% | 1015.4 hPa | 0 mm | 0.89 m/s, 53° | 0 W/m² | - |
| 1787874197 | 18.33° C | 59% | 1015.3 hPa | 0 mm | 0.45 m/s, 57° | 0 W/m² | - |
| 1787874137 | 18.33° C | 59% | 1015.4 hPa | 0 mm | 0 m/s | 0 W/m² | - |
| 1787874077 | 18.33° C | 58% | 1015.5 hPa | 0 mm | 0.45 m/s, 108° | 0 W/m² | - |
* Rain latest hour (hover to see other rain measurements)
** Current wind speed in m/s (hover to see current wind gust speed)